Weather in Brykin Bor

Russia / Ryazan Oblast     54°42′29″N   40°51′26″E
temp.,
°C
wind,
m/s
gust,
m/s
humid.,
%
clouds,
%
prec.,
mm/h
press.,
hPa
HPBL,
m
1 march, mon
mon100:00−11nne129774 0.0 102121
03:00−12n129774 0.1 102221
06:00−13nw129754 0.0 102420
09:00−10w119547 0.0 102576
12:00−4w249149 0.0 1024413
15:00−2wsw479173 0.0 1023542
18:00−2wsw4993100 0.1 1021667
21:00−1wsw41192100 0.1 1018614
2 march, tue
tue200:00+1wsw51193100 0.0 1015635
03:00+1wsw51294100 0.0 1013580
06:00+1w51294100 0.1 1010723
09:00+1w51298100 0.2 1008692
12:00+1nw41096100 0.3 1007711
15:00+2nw399395 0.6 1007868
18:00−1nw3108891 0.2 1007416
21:00−3nw3119191 0.2 1008377
3 march, wed
wed300:00−3wnw4109490 0.1 1008433
03:00−3nw5129495 0.3 1009800
06:00−6nw3119267 0.1 1010499
09:00−6nw5118882 0.2 1013779
12:00−3nw51083100 0.1 1014871
15:00−1nw488065 0.1 10141084
18:00−2w31091100 0.1 1013686
21:00−3w4119293 0.1 1013531
4 march, thu
thu400:00−2w4119194 0.0 1012597
03:00−4wsw4119485 0.1 1010433
06:00−3wsw51292100 0.0 1007648
09:00−1sw61487100 0.1 1004734
12:00+1wsw71486100 0.0 10011162
15:00+1wsw61387100 0.1 10001223
18:000wsw61497100 0.2 9971077
21:000w61395100 0.9 998912
5 march, fri
fri500:00−2wnw41187100 0.6 1000533
03:00−6nw379674 0.6 1004194
06:00−9nw23966 0.0 100769
09:00−6nw24934 0.0 1009210
12:00−3nw23772 0.0 1011670
15:00−2nw23758 0.0 1012918
18:00−6nnw118688 0.0 101321
21:00−7ene119091 0.0 101421